Total_Precipitation_Accumulation
2.61 2.75 2.59 2.48 2.17 2.28 2.53 2.62 2.36 2.55 2.53 2.49 2.41 2.38 2.38 2.11 1.94 1.90 1.94 2.11 2.07 2.03 2.22 2.29 2.17 2.12 2.08 1.89 1.72 1.47 1.28 1.18 1.07 0.93 0.84 0.78 0.73 0.63 0.57 0.46 0.40 0.32 0.29
2.27 2.34 2.23 2.22 2.10 2.15 2.31 2.30 2.28 2.58 2.69 2.61 2.27 2.10 2.09 2.10 2.03 1.91 2.05 2.16 2.19 2.00 2.12 2.42 2.54 2.49 2.52 2.34 2.09 1.84 1.58 1.40 1.16 0.96 0.86 0.82 0.76 0.70 0.74 0.73 0.75 0.46 0.33
2.01 2.08 2.09 2.04 2.08 1.98 2.01 2.00 2.07 2.27 2.28 2.25 2.07 1.91 1.93 1.97 2.03 2.02 1.96 2.04 2.11 2.16 2.14 2.31 2.52 2.58 2.76 2.77 2.62 2.26 1.94 1.65 1.33 1.02 0.84 0.80 0.76 0.66 0.66 0.72 0.74 0.54 0.39
1.76 1.86 1.77 1.75 1.74 1.67 1.67 1.87 1.94 2.10 2.25 2.29 2.26 2.02 2.05 2.11 1.97 2.05 2.07 2.03 2.29 2.13 2.39 2.54 2.53 2.50 2.82 3.12 3.23 3.02 2.55 1.99 1.57 1.27 1.02 0.89 0.83 0.75 0.67 0.66 0.64 0.61 0.48
1.64 1.72 1.74 1.77 1.51 1.54 1.58 1.53 1.82 1.99 2.25 2.29 1.94 1.97 1.85 1.86 1.87 1.74 1.98 1.90 2.08 2.22 2.44 2.49 2.58 2.48 2.80 3.45 3.94 4.05 3.53 2.75 2.12 1.77 1.57 1.38 1.20 0.97 0.82 0.79 0.72 0.67 0.61
1.63 1.65 1.56 1.50 1.35 1.50 1.69 1.82 2.20 2.13 2.05 2.04 1.70 1.92 1.76 1.54 1.62 1.73 1.73 1.85 1.94 1.80 2.09 2.41 2.64 2.21 2.55 3.22 3.73 4.14 4.26 3.86 3.11 2.47 2.17 1.96 1.76 1.37 0.97 0.85 0.81 0.75 0.69
1.64 1.71 1.64 1.73 1.47 1.50 1.56 1.57 1.76 1.88 1.79 1.79 2.13 2.24 1.85 1.53 1.57 1.58 1.59 1.84 1.91 1.91 2.23 2.62 2.75 2.67 2.32 2.26 2.42 3.02 3.81 4.26 4.06 3.40 2.90 2.51 2.24 1.82 1.34 1.06 0.91 0.84 0.80
1.54 1.49 1.72 1.63 1.54 1.64 1.60 1.60 1.74 1.84 1.78 1.83 2.05 2.30 2.07 2.07 1.85 1.39 1.63 1.77 1.81 2.04 2.15 2.28 2.58 2.85 2.52 2.56 1.91 2.01 2.82 3.51 4.15 4.15 3.55 2.87 2.53 2.23 1.81 1.47 1.20 1.02 0.95
1.39 1.53 1.56 1.64 1.70 1.42 1.60 1.69 1.63 1.68 1.75 1.70 1.73 2.05 2.09 2.11 1.87 1.48 1.44 1.51 1.70 2.00 2.08 2.20 2.08 2.30 2.48 2.76 2.55 1.98 2.12 2.40 3.26 4.14 4.09 3.39 2.74 2.27 2.05 1.90 1.70 1.43 1.25
1.39 1.35 1.42 1.65 1.74 1.50 1.68 1.35 1.44 1.67 1.76 1.63 1.65 1.58 1.60 1.77 1.91 1.86 1.60 1.48 1.58 1.74 1.87 1.96 2.10 2.29 2.42 2.68 2.68 1.96 1.51 1.66 2.36 3.40 4.02 3.82 3.21 2.57 2.26 2.31 2.54 2.46 2.00
1.71 1.41 1.43 1.63 1.75 1.68 1.69 1.56 1.77 1.59 1.50 1.49 1.55 1.60 1.62 1.57 1.48 1.72 1.81 1.72 1.64 1.47 1.51 1.62 1.72 1.84 1.92 2.22 2.46 1.85 1.44 1.52 1.75 2.33 2.89 3.26 3.24 3.00 2.77 2.85 3.35 3.68 3.49
1.74 1.64 1.62 1.81 1.81 1.75 1.75 1.67 1.71 1.63 1.61 1.60 1.52 1.48 1.72 1.71 1.58 1.70 1.60 1.60 1.59 1.30 1.29 1.40 1.46 1.53 1.65 1.89 1.85 1.68 1.72 1.81 1.72 1.72 1.84 2.11 2.47 2.71 2.92 3.11 3.42 3.88 4.11
1.52 1.64 1.73 1.92 1.83 1.77 1.71 1.74 1.73 1.74 1.78 1.80 1.67 1.50 1.49 1.57 1.59 1.60 1.60 1.42 1.39 1.30 1.34 1.29 1.30 1.47 1.60 2.02 2.12 1.90 1.83 1.97 1.71 1.52 1.44 1.45 1.61 1.89 2.17 2.48 2.92 3.40 3.82
1.45 1.60 1.70 1.66 1.64 1.64 1.56 1.73 1.64 1.60 1.65 1.69 1.61 1.84 1.75 1.50 1.60 1.63 1.72 1.87 1.77 1.64 1.63 1.59 1.64 1.79 1.97 2.13 2.29 2.07 1.76 1.65 1.42 1.33 1.29 1.26 1.31 1.40 1.56 1.72 1.94 2.25 2.52
1.41 1.45 1.43 1.45 1.50 1.53 1.63 1.78 1.70 1.64 1.70 1.59 1.60 1.94 1.84 1.56 1.53 1.59 1.68 1.91 2.19 1.98 1.82 1.87 2.00 2.12 2.14 2.14 2.17 1.98 1.78 1.65 1.42 1.27 1.21 1.16 1.15 1.16 1.19 1.24 1.33 1.49 1.63
1.40 1.45 1.43 1.45 1.45 1.40 1.48 1.66 1.59 1.66 1.74 1.71 1.73 1.80 1.80 1.69 1.68 1.73 1.79 1.92 2.15 2.15 1.96 1.89 2.13 2.23 2.12 1.95 2.13 2.06 1.85 1.74 1.45 1.25 1.13 1.11 1.12 1.13 1.14 1.13 1.12 1.18 1.25
1.45 1.48 1.50 1.55 1.51 1.48 1.52 1.61 1.52 1.64 1.71 1.82 1.81 1.76 1.76 1.92 1.95 1.82 1.86 1.91 2.09 2.29 2.21 2.08 2.22 2.23 2.11 1.92 1.90 1.90 1.82 1.75 1.54 1.45 1.26 1.18 1.13 1.11 1.10 1.13 1.18 1.20 1.18
1.56 1.56 1.59 1.68 1.60 1.63 1.67 1.56 1.55 1.63 1.70 1.73 1.82 1.99 1.99 2.03 1.98 1.88 1.95 1.98 2.11 2.37 2.37 2.25 2.22 2.22 2.14 2.06 1.95 1.78 1.58 1.54 1.52 1.64 1.45 1.29 1.22 1.19 1.15 1.10 1.07 1.04 1.02
1.66 1.64 1.59 1.61 1.69 1.79 1.79 1.61 1.55 1.53 1.47 1.45 1.58 1.85 2.10 2.36 2.24 2.09 2.04 2.01 2.07 2.19 2.37 2.24 2.16 2.33 2.28 2.17 2.02 1.76 1.57 1.51 1.33 1.40 1.42 1.31 1.17 1.07 1.02 0.99 0.96 0.94 0.89
1.57 1.65 1.69 1.67 1.67 1.67 1.64 1.62 1.65 1.62 1.53 1.42 1.45 1.55 1.68 1.91 2.12 2.26 2.10 1.94 1.99 2.12 2.27 2.30 2.36 2.62 2.68 2.53 2.24 1.93 1.78 1.65 1.49 1.26 1.28 1.22 1.14 1.04 1.00 0.96 0.93 0.92 0.91
1.65 1.80 1.87 1.86 1.82 1.76 1.62 1.73 1.84 1.70 1.67 1.58 1.55 1.52 1.42 1.53 1.69 1.85 1.84 2.03 2.10 2.09 2.21 2.31 2.52 2.95 2.97 2.72 2.27 2.01 1.91 1.87 1.68 1.43 1.31 1.14 1.03 0.94 0.95 1.00 0.98 0.93 0.87
2.11 2.15 2.06 2.03 1.97 1.75 1.86 1.86 1.83 1.80 1.85 1.80 1.73 1.66 1.52 1.43 1.45 1.53 1.59 1.73 1.92 1.98 2.06 2.20 2.39 2.68 2.80 2.67 2.40 2.15 1.93 1.82 1.68 1.50 1.39 1.31 1.16 1.07 0.97 0.90 0.99 0.98 0.96
2.27 2.30 2.35 2.28 2.17 2.19 2.15 1.85 1.78 1.76 1.83 1.85 1.92 1.94 1.62 1.37 1.48 1.45 1.53 1.55 1.53 1.63 1.75 1.91 2.11 2.29 2.62 2.72 2.60 2.21 2.04 1.87 1.62 1.50 1.45 1.37 1.29 1.15 1.01 0.96 1.02 0.91 0.90
2.23 2.17 2.11 2.02 1.99 1.97 1.95 1.69 1.58 1.48 1.58 1.64 1.65 1.67 1.66 1.52 1.42 1.44 1.45 1.37 1.29 1.30 1.37 1.42 1.54 1.81 2.14 2.53 2.74 2.50 2.33 2.12 1.85 1.62 1.40 1.35 1.30 1.19 1.04 0.95 1.01 0.89 0.80
2.07 1.96 1.88 1.85 1.82 1.83 1.83 1.64 1.52 1.38 1.40 1.41 1.42 1.45 1.49 1.42 1.41 1.31 1.23 1.22 1.19 1.13 1.13 1.15 1.18 1.35 1.63 1.97 2.36 2.52 2.26 1.92 1.73 1.53 1.40 1.30 1.20 1.23 1.17 1.01 0.97 1.00 0.84
2.14 2.05 1.97 1.97 1.94 1.96 2.03 1.78 1.63 1.50 1.53 1.53 1.60 1.58 1.52 1.38 1.33 1.17 1.08 1.11 1.06 0.99 1.02 0.99 0.95 0.99 1.11 1.40 1.82 1.99 2.08 1.86 1.62 1.48 1.22 1.17 1.12 1.14 1.16 0.98 0.82 0.81 0.80